Location: ??
(31.9467°N, 34.8903°E)
Time: 18:20:12
(UTC+00:00)

Delta 2 Rocket - Pass Details

Date: 29 October 2020
Orbit: 415 x 806 km, 35.6° (Epoch: 01 December)

Event Time Altitude Azimuth Distance (km) Brightness Sun altitude
Rises 15:28:57 0° 287° (WNW) 2,976 8.3 -8.2°
Reaches altitude 10° 15:31:12 10° 287° (WNW) 2,123 7.4 -8.7°
Maximum altitude 15:36:15 84° 199° (SSW) 744 4.0 -9.7°
Drops below altitude 10° 15:41:48 10° 112° (ESE) 2,326 6.0 -10.9°
Enters shadow 15:41:57 - 112° (ESE) 2,382 6.0 -10.9°
